Retour au catalogue

CZ-4B R/B

ActifSSO
NORAD 28415·ROCKET BODY·🇨🇳 China

Lancé Sep 8, 2004 depuis Taiyuan Satellite Launch Center

Loading…

Prochains Passages (prochaines 24 heures)

TLE

FraisSource: Space-Track

Époque: Sep 14, 2026, 12:46 UTC

1 28415U 04035C   26257.53237208  .00006141  00000-0  20002-3 0  9993
2 28415  97.3308 289.6411 0030497  20.0927 340.1507 15.31751304208792

Suivez CZ-4B R/B en temps réel avec AllMySat

Download on the App Store